Tracking 31027 objects as of 19-Jul-2025
HD Live streaming from Space Station
objects crossing your sky now

GJZ 04

Track GJZ 04 now!
10-day predictions


NORAD ID: 62293
Int'l Code: 2024-238D
Perigee: 971.4 km
Apogee: 1,005.2 km
Inclination: 59.9 °
Period: 104.7 minutes
Semi major axis: 7359 km
RCS: Unknown
Launch date: December 12, 2024
Source: People's Republic of China (PRC)
Launch site: Jiuquan Satellite Launch Center, China (JSC)
Your satellite tracking list
CREW DRAGON DEMO-2 DEB
Track 1 satellite(s)




NASA's NSSDC Master Catalog

Two Line Element Set (TLE):
1 62293U 24238D   25199.84192919 -.00000149  00000-0 -31567-4 0  9992
2 62293  59.9105 199.9685 0022950  86.2623 274.1009 13.75141359 30066
Source of the keplerian elements: AFSPC